Flag for Germany Weather past 2 weeks in Prenzlau, Brandenburg, Germany

Now
46 °F

Clear.


Feels Like: 46 °F
Forecast: 44 / 73 °F
Wind: No wind

Location: Szczecin Airport

Current Time: Aug 1, 2015 at 1:38:59 AM

Latest Report: Aug 1, 2015 at 1:00 AM


Visibility: 10 mi

Pressure: 30.09 "Hg

Humidity: 93%

Dew point: 45 °F

Location of PrenzlauLocation

Historic Weather in Prenzlau — Graph

°F

Prenzlau temperature yesterday

Maximum temperature yesterday: 61 °F (at 3:30 PM)
Minimum temperature yesterday: 48 °F (at 11:30 PM)
Average temperature yesterday: 56 °F

Past Weeks' High & Low Weather Summary

 TemperatureHumidityPressure
High81 °F (Jul 22, 2:00 PM)100% (Jul 19, 2:00 PM)30.07 "Hg (Jul 19, 2:00 PM)
Low48 °F (Jul 27, 1:00 AM)38% (Jul 24, 4:00 PM)29.50 "Hg (Jul 25, 5:30 PM)
Average63 °F74%29.82 "Hg
* Reported Midnight between Jul 16 and Jul 17 — Aug 1 12:30 AM, Prenzlau, Weather by CustomWeather, © 2015

Note: Actual official high and low records may vary slightly from our data, if they occured in-between our weather recording intervals... More about our weather records

Advertising

Prenzlau weather history for previous 24 hours

 ConditionsComfort  
Time TempWeatherWind HumidityBarometerVisibility
12:30 AM
Sat, Aug 1
48 °FClear.No wind87%30.07 "Hg10 mi
11:30 PM
Fri, Jul 31
48 °FClear.3 mph87%30.07 "Hg10 mi
11:00 PM50 °FClear.No wind88%30.07 "Hg10 mi
10:30 PM50 °FClear.No wind88%30.07 "Hg10 mi
10:00 PM52 °FClear.No wind88%30.07 "Hg10 mi
9:30 PM54 °FSunny.3 mph77%30.07 "Hg10 mi
9:00 PM55 °FSunny.3 mph72%30.07 "Hg10 mi
8:30 PM57 °FSunny.3 mph67%30.07 "Hg10 mi
8:00 PM57 °FSunny.3 mph67%30.07 "Hg10 mi
7:30 PM57 °FSunny.3 mph72%30.07 "Hg10 mi
7:00 PM59 °FScattered clouds.3 mph63%30.07 "HgN/A
6:30 PM59 °FScattered clouds.6 mph63%30.07 "HgN/A
6:00 PM61 °FScattered clouds.7 mph55%30.07 "HgN/A
5:30 PM61 °FPassing clouds.9 mph55%30.07 "HgN/A
5:00 PM59 °FScattered clouds.7 mph59%30.07 "HgN/A
4:30 PM59 °FScattered clouds.12 mph59%30.07 "HgN/A
4:00 PM61 °FPassing clouds.9 mph55%30.07 "HgN/A
3:30 PM61 °FPassing clouds.9 mph55%30.04 "HgN/A
3:00 PM59 °FPassing clouds.9 mph59%30.04 "HgN/A
2:30 PM59 °FPartly sunny.8 mph68%30.04 "HgN/A
2:00 PM59 °FBroken clouds.8 mph68%30.04 "HgN/A
1:30 PM59 °FBroken clouds.8 mph68%30.04 "HgN/A
1:00 PM59 °FBroken clouds.8 mph68%30.04 "HgN/A
12:30 PM59 °FBroken clouds.12 mph72%30.04 "HgN/A
12:00 PM57 °FPartly sunny.12 mph77%30.04 "HgN/A
11:30 AM57 °FPartly sunny.14 mph77%30.04 "HgN/A
11:00 AM57 °FPartly sunny.10 mph77%30.01 "HgN/A
10:30 AM57 °FPartly sunny.14 mph77%30.01 "HgN/A
10:00 AM57 °FBroken clouds.14 mph77%29.98 "HgN/A
9:30 AM55 °FPartly sunny.12 mph82%29.98 "HgN/A
9:00 AM54 °FLight rain. Partly sunny.8 mph94%29.98 "HgN/A
8:30 AM54 °FLight rain. Partly sunny.12 mph88%29.98 "HgN/A
8:00 AM54 °FLight rain. Partly sunny.9 mph88%29.95 "HgN/A
7:30 AM54 °FPartly sunny.9 mph88%29.95 "HgN/A
7:00 AM54 °FPartly sunny.10 mph88%29.92 "HgN/A
6:30 AM54 °FPartly sunny.8 mph88%29.92 "HgN/A
6:00 AM54 °FLight rain. Passing clouds.8 mph88%29.92 "HgN/A
5:30 AM54 °FLight rain. Passing clouds.9 mph94%29.89 "Hg4 mi
5:00 AM52 °FLight rain. Passing clouds.9 mph100%29.89 "Hg4 mi
4:30 AM52 °FLight rain. Passing clouds.10 mph100%29.89 "HgN/A
4:00 AM54 °FSprinkles. Partly cloudy.10 mph94%29.89 "Hg4 mi
3:30 AM54 °FSprinkles. Passing clouds.10 mph88%29.89 "Hg5 mi
3:00 AM54 °FSprinkles. Passing clouds.10 mph94%29.89 "HgN/A
2:30 AM54 °FSprinkles. Passing clouds.8 mph88%29.89 "HgN/A
2:00 AM55 °FPassing clouds.12 mph82%29.89 "HgN/A
1:30 AM55 °FPassing clouds.7 mph82%29.89 "HgN/A
1:00 AM55 °FSprinkles. Passing clouds.12 mph82%29.89 "HgN/A
Weather by CustomWeather, © 2015

See weather overviewHow to use our weather pages